Regional Weather Roundup
Issued by NWS

Home | Current Version | Previous Version | Graphics & Text | Print | Product List | Glossary Off
Versions: 1 2 3 4 5 6 7 8 9 10 11 12 13 14 15 16 17 18 19 20 21 22 23 24 25 26 27 28 29 30 31 32 33 34 35 36 37 38 39 40 41 42 43 44 45 46 47 48 49 50

000
ASUS43 KMKX 181800
RWRWI

WISCONSIN REGIONAL WEATHER ROUNDUP
NATIONAL WEATHER SERVICE MILWAUKEE/SULLIVAN WI
1200 PM CST THU DEC 18 2014

NOTE: "FAIR" INDICATES FEW OR NO CLOUDS BELOW 12,000 FEET WITH NO
SIGNIFICANT WEATHER AND/OR OBSTRUCTIONS TO VISIBILITY.

WIZ001-002-006>008-014>016-023>028-181900-
NORTHWEST WISCONSIN

CITY           SKY/WX    TMP DP  RH WIND       PRES   REMARKS
SUPERIOR ARPT  CLOUDY    26  22  85 S3        30.30S
ASHLAND        MOSUNNY   25  18  74 E7        30.30F WCI  17
6HR MIN TEMP:  21; 6HR MAX TEMP:  26;

HAYWARD        CLOUDY    23  18  81 VRB3      30.26F
6HR MIN TEMP:  21; 6HR MAX TEMP:  23;

SIREN          CLOUDY    22  19  86 SE3       30.29F
CUMBERLAND     CLOUDY    21  19  93 S3        30.26F
RICE LAKE      CLOUDY    23  19  87 S5        30.29F WCI  17
CHETEK         CLOUDY    23  20  87 SE3       30.29S
LADYSMITH      CLOUDY    24  20  83 SE3       30.28F
EAU CLAIRE     NOT AVBL
MENOMONIE      CLOUDY    24  19  83 S6        30.30F WCI  17
NEW RICHMOND   CLOUDY    22  19  87 S7        30.29F WCI  14
OSCEOLA        CLOUDY    23  19  84 SE6       30.32F WCI  16
$$

WIZ003>005-009-010-017-018-181900-
NORTH CENTRAL WISCONSIN

CITY           SKY/WX    TMP DP  RH WIND       PRES   REMARKS
MANITOWISH WTR MOSUNNY   21  15  78 E3        30.23F
ARBOR VITAE    MOSUNNY   24  17  75 SE7       30.23F WCI  16
WOODRUFF       MOSUNNY   24  17  75 SE7       30.23F WCI  16
RHINELANDER    MOSUNNY   22  16  78 CALM      30.23F
6HR MIN TEMP:  19; 6HR MAX TEMP:  22;

EAGLE RIVER    MOSUNNY   23  15  72 CALM      30.22F
LAND O LAKES   MOSUNNY   25  18  74 CALM      30.23F
PHILLIPS       CLOUDY    20  17  85 SE6       30.25F WCI  13
TOMAHAWK       CLOUDY    22  18  83 CALM      30.25F
MEDFORD        CLOUDY    22  18  84 CALM      30.24F
MERRILL        CLOUDY    24  19  83 CALM      30.25F
$$

WIZ029-030-035-036-043>047-181900-
CENTRAL WISCONSIN

CITY           SKY/WX    TMP DP  RH WIND       PRES   REMARKS
WAUSAU         CLOUDY    24  19  81 E3        30.24F
6HR MIN TEMP:  23; 6HR MAX TEMP:  24;

MOSINEE        CLOUDY    25  21  86 SE5       30.26F WCI  19
MARSHFIELD     CLOUDY    25  19  78 S5        30.24F WCI  19
6HR MIN TEMP:  22; 6HR MAX TEMP:  25;

STEVENS POINT  CLOUDY    24  19  81 CALM      30.26F
WAUPACA        CLOUDY    28  20  71 CALM      30.28F
WAUTOMA        NOT AVBL
WISC RAPIDS    CLOUDY    25  19  78 CALM      30.27F
6HR MIN TEMP:  22; 6HR MAX TEMP:  26;

CAMP DOUGLAS   NOT AVBL
$$

WIZ011>013-019>022-031-037>040-048>050-181900-
NORTHEAST WISCONSIN

CITY           SKY/WX    TMP DP  RH WIND       PRES   REMARKS
ANTIGO         MOSUNNY   24  17  74 CALM      30.24S
SHAWANO        MOSUNNY   31  21  66 E3        30.28F
OCONTO         CLOUDY    26  20  77 E5        30.27F WCI  20
STURGEON BAY   CLOUDY    27  19  74 N5        30.26F WCI  21
6HR MIN TEMP:  25; 6HR MAX TEMP:  27;

GREEN BAY      CLOUDY    28  21  75 N7        30.26F WCI  21
6HR MIN TEMP:  26; 6HR MAX TEMP:  28;

MANITOWOC      NOT AVBL
APPLETON       CLOUDY    27  19  74 N6        30.26F WCI  20
CLINTONVILLE   CLOUDY    28  19  69 NE5       30.27F WCI  23
OSHKOSH        CLOUDY    27  20  75 N5        30.26F WCI  22
6HR MIN TEMP:  25; 6HR MAX TEMP:  27; 6HR PCP: TRACE;

$$

WIZ032>034-041-042-053>061-181900-
SOUTHWEST WISCONSIN

CITY           SKY/WX    TMP DP  RH WIND       PRES   REMARKS
LA CROSSE      CLOUDY    25  18  74 S3        30.30F
6HR MIN TEMP:  21; 6HR MAX TEMP:  25;

SPARTA         CLOUDY    24  19  80 CALM      30.30F
VIROQUA        CLOUDY    22  19  89 SE3       30.25F
BOSCOBEL       CLOUDY    27  17  66 CALM      30.29F
6HR MIN TEMP:  12; 6HR MAX TEMP:  27;

PRAIRIE DU CHI MOSUNNY   25  18  72 CALM      30.29F
PLATTEVILLE    MOSUNNY   23  18  82 CALM      30.26F
$$

WIZ056-057-062-063-064-067-068-181900-
SOUTH CENTRAL WISCONSIN

CITY           SKY/WX    TMP DP  RH WIND       PRES   REMARKS
REEDSBURG      CLOUDY    24  20  83 CALM      30.27F
BARABOO/DELLS  CLOUDY    24  20  82 CALM      30.27F
LONE ROCK      NOT AVBL
MINERAL POINT  CLOUDY    27  19  74 CALM      30.25F
MADISON        FLURRIES  26  20  77 NW5       30.25F WCI  20
6HR MIN TEMP:  18; 6HR MAX TEMP:  26; 6HR PCP: TRACE;

MIDDLETON      CLOUDY    27  21  79 CALM      30.27F
WATERTOWN      CLOUDY    26  23  91 NW3       30.26F
MONROE         CLOUDY    25  19  80 CALM      30.25F
JANESVILLE     CLOUDY    27  19  74 W6        30.26F WCI  20
$$

WIZ051-052-058>065-066-070>072-181900-
SOUTHEAST WISCONSIN

CITY           SKY/WX    TMP DP  RH WIND       PRES   REMARKS
MILWAUKEE      CLOUDY    27  21  78 W8        30.25F WCI  19
6HR MIN TEMP:  19; 6HR MAX TEMP:  28;

WAUKESHA       CLOUDY    23  21  93 W6        30.26F FOG     WCI  16
MILWAUKEE/TIMM NOT AVBL
RACINE         CLOUDY    28  19  69 NW6       30.26F WCI  22
6HR MIN TEMP:  18; 6HR MAX TEMP:  28;

BURLINGTON     MOSUNNY   28  21  76 W7        30.25F WCI  20
KENOSHA        CLOUDY    27  21  78 W7        30.24F WCI  19
6HR MIN TEMP:  17; 6HR MAX TEMP:  27;

FOND DU LAC    CLOUDY    27  21  78 N8        30.25F WCI  19
6HR MIN TEMP:  24; 6HR MAX TEMP:  28; 6HR PCP: TRACE;

SHEBOYGAN      CLOUDY    28  21  75 NW9       30.24F WCI  19
6HR MIN TEMP:  25; 6HR MAX TEMP:  28;

WEST BEND      CLOUDY    28  25  86 NW3       30.24F
JUNEAU         CLOUDY    26  22  86 NW5       30.27S WCI  20
$$

LSZ147-162-181900-
LAKE SUPERIOR

STATION/POSITION TIME  TEMP    WIND        PRES    WAVE
                       AIR SEA DIR/SP/G            HT/PER
                 (UTC) (F)     (DEG/KT/KT) (MB)    (FT/S)
DEVILS ISLAND    1700   28      60/ 13/ 15 1027.5F
PORT WING        1700   28     110/  2/  5 1026.4
SAXON HARBOR     1700   28     140/  2/ 11 1026.4S
$$

LMZ867-665-643>646-181900-
LAKE MICHIGAN

STATION/POSITION TIME  TEMP    WIND        PRES    WAVE
                       AIR SEA DIR/SP/G            HT/PER
                 (UTC) (F)     (DEG/KT/KT) (MB)    (FT/S)
CHAMBERS ISLAND  1700   27      20/ 11/ 13 1025.4F
NORTHPORT PIER   1700   27      20/  7/  9 1025.1F
SISTER BAY       1713           20/  8/ 11   N/A
ALGOMA LAKESHORE 1714          340/ 10/ 12   N/A
KEWAUNEE LAKESHO 1700   27     310/  6/  8 1024.0F
SHEBOYGAN LAKESH 1700   28 34  310/ 11/ 12 1025.8F
PORT WASHINGTON  1740   29     310/  5/  8 1025.1F
MILWAUKEE LAKESH 1700   27     310/  6/  8   N/A
KENOSHA   LAKESH 1700   25     280/  6/  8 1025.1F
$$

TC  - TEMPERATURE IN CELSIUS
VSB - VISIBILITY IN STATUTE MILES
WCI - WIND CHILL INDEX
HX  - HEAT INDEX




USA.gov is the U.S. government's official web portal to all federal, state and local government web resources and services.